Location: Hopville
(44.8032°N, 123.1329°W)
Time: 04:07:11
(UTC+00:00)

USA 306 - Pass Details

Date: 24 January 2021
Orbit: 565 x 578 km, 54.0° (Epoch: 25 February)

Event Time Altitude Azimuth Distance (km) Brightness Sun altitude
Exits shadow 14:32:18 10° 245° (WSW) 1,831 5.0 -12.0°
Maximum altitude 14:36:27 67° 328° (NNW) 617 2.9 -11.3°
Drops below altitude 10° 14:40:40 10° 51° (NE) 1,864 6.0 -10.6°
Sets 14:42:56 0° 55° (NE) 2,764 7.0 -10.2°
